Council Bluffs, IA

12:41 PM CDT on July 28, 2016 (GMT -0500)
Council Bluffs Municipal

Weather History for KCBF - November, 2012

Change the Weather History Date:

Friday, November 30, 2012

  Actual Average Record
Temperature  
Mean Temperature 37 °F -  
Max Temperature 44 °F 43 °F 60 °F (2003)
Min Temperature 30 °F 27 °F 12 °F (2006)
Degree Days  
Heating Degree Days 28    
Moisture  
Dew Point 31 °F    
Average Humidity 76    
Maximum Humidity 87    
Minimum Humidity 61    
Precipitation  
Precipitation 0.00 in - - ()
Sea Level Pressure  
Sea Level Pressure 30.01 in    
Wind  
Wind Speed 8 mph (NW)    
Max Wind Speed 15 mph    
Max Gust Speed 21 mph    
Visibility 7 miles    
Events      
Averages and records for this station are not official NWS values.
T = Trace of Precipitation, MM = Missing Value Source: NWS Daily Summary

Daily Weather History Graph

Daily Weather History Graph

Search for Another Location

Airport or City:

Trip Planner

Search our weather history database for the weather conditions in past years. The results will help you decide how hot, cold, wet, or windy it might be!

Date:

Astronomy

Nov. 30, 2012 Rise Set
Actual Time 7:28 AM CST 4:54 PM CST
Civil Twilight 6:58 AM CST 5:25 PM CST
Nautical Twilight 6:23 AM CST 5:59 PM CST
Astronomical Twilight 5:50 AM CST 6:33 PM CST
Moon 6:50 PM CST (11/30) 9:01 AM CST (11/30)
Length of Visible Light 10h 27m
Length of Day
9h 26m
Waning Gibbous, 96% of the Moon is Illuminated
Nov 30
Waning Gibbous
Dec 6
Last Quarter
Dec 13
New
Dec 19
First Quarter
Dec 28
Full

Hourly Weather History & Observations

Time (CST) Temp. Windchill Dew Point Humidity Pressure Visibility Wind Dir Wind Speed Gust Speed Precip Events Conditions
12:15 AM 41.0 °F 36.4 °F 33.8 °F 76% 29.94 in 10.0 mi South 6.9 mph - N/A   Unknown
12:35 AM 42.8 °F 39.3 °F 33.8 °F 70% 29.94 in 10.0 mi SSW 5.8 mph - N/A   Clear
12:55 AM 42.8 °F 38.6 °F 33.8 °F 70% 29.93 in 10.0 mi SSW 6.9 mph - N/A   Unknown
1:15 AM 42.8 °F 37.5 °F 33.8 °F 70% 29.93 in 10.0 mi SW 9.2 mph - N/A   Clear
1:35 AM 41.0 °F 35.8 °F 33.8 °F 76% 29.94 in 10.0 mi SW 8.1 mph - N/A   Unknown
1:55 AM 39.2 °F 34.2 °F 32.0 °F 75% 29.95 in 10.0 mi WSW 6.9 mph - N/A   Unknown
2:15 AM 39.2 °F 32.5 °F 32.0 °F 75% 29.95 in 10.0 mi WNW 10.4 mph - N/A   Unknown
2:35 AM 39.2 °F 33.0 °F 32.0 °F 75% 29.96 in 10.0 mi WNW 9.2 mph - N/A   Unknown
2:55 AM 37.4 °F 31.4 °F 30.2 °F 75% 29.96 in 10.0 mi WNW 8.1 mph - N/A   Clear
3:15 AM 37.4 °F 30.8 °F 30.2 °F 75% 29.96 in 10.0 mi WNW 9.2 mph - N/A   Clear
3:35 AM 37.4 °F 29.3 °F 30.2 °F 75% 29.97 in 10.0 mi NW 12.7 mph - N/A   Clear
3:55 AM 37.4 °F 28.9 °F 28.4 °F 70% 29.97 in 10.0 mi NW 13.8 mph - N/A   Unknown
4:15 AM 37.4 °F 30.8 °F 28.4 °F 70% 29.98 in 10.0 mi NW 9.2 mph - N/A   Unknown
4:35 AM 35.6 °F 27.5 °F 28.4 °F 75% 29.98 in 10.0 mi NNW 11.5 mph 18.4 mph N/A   Unknown
4:55 AM 35.6 °F 27.1 °F 28.4 °F 75% 29.99 in 10.0 mi NNW 12.7 mph 19.6 mph N/A   Clear
5:15 AM 35.6 °F 26.2 °F 28.4 °F 75% 30.00 in 10.0 mi NW 15.0 mph 20.7 mph N/A   Clear
5:35 AM 33.8 °F 25.3 °F 28.4 °F 81% 30.01 in 9.0 mi NW 11.5 mph 17.3 mph N/A   Clear
5:55 AM 33.8 °F 26.4 °F 28.4 °F 81% 30.02 in 9.0 mi NW 9.2 mph - N/A   Unknown
6:15 AM 32.0 °F 23.0 °F 26.6 °F 80% 30.02 in 9.0 mi NW 11.5 mph - N/A   Clear
6:35 AM 32.0 °F 23.0 °F 26.6 °F 80% 30.03 in 7.0 mi NW 11.5 mph - N/A   Clear
6:55 AM 32.0 °F 23.6 °F 26.6 °F 80% 30.03 in 7.0 mi NW 10.4 mph 17.3 mph N/A   Clear
7:15 AM 30.2 °F 20.2 °F 26.6 °F 86% 30.04 in 7.0 mi NW 12.7 mph - N/A   Unknown
7:35 AM 30.2 °F 20.8 °F 26.6 °F 86% 30.05 in 6.0 mi NW 11.5 mph - N/A   Haze
7:55 AM 30.2 °F 21.3 °F 26.6 °F 86% 30.05 in 5.0 mi NW 10.4 mph - N/A   Haze
8:15 AM 30.2 °F 21.3 °F 26.6 °F 86% 30.05 in 6.0 mi NW 10.4 mph - N/A   Haze
8:35 AM 30.2 °F 20.2 °F 26.6 °F 86% 30.06 in 6.0 mi NW 12.7 mph - N/A   Haze
8:55 AM 30.2 °F 20.2 °F 26.6 °F 86% 30.06 in 5.0 mi NW 12.7 mph - N/A   Haze
9:15 AM 32.0 °F 23.0 °F 26.6 °F 80% 30.06 in 6.0 mi North 11.5 mph 18.4 mph N/A   Haze
9:35 AM 32.0 °F 24.8 °F 26.6 °F 80% 30.06 in 6.0 mi NNW 8.1 mph - N/A   Haze
9:55 AM 33.8 °F 27.7 °F 28.4 °F 81% 30.07 in 6.0 mi North 6.9 mph - N/A   Haze
10:15 AM 35.6 °F 30.7 °F 28.4 °F 75% 30.08 in 6.0 mi NNW 5.8 mph - N/A   Haze
10:35 AM 37.4 °F 32.1 °F 28.4 °F 70% 30.08 in 5.0 mi NNW 6.9 mph - N/A   Haze
10:55 AM 37.4 °F 32.8 °F 30.2 °F 75% 30.08 in 7.0 mi NNW 5.8 mph - N/A   Clear
11:15 AM 37.4 °F 30.8 °F 30.2 °F 75% 30.07 in 7.0 mi North 9.2 mph - N/A   Clear
11:35 AM 39.2 °F 33.0 °F 30.2 °F 70% 30.06 in 7.0 mi NNE 9.2 mph - N/A   Clear
11:55 AM 41.0 °F 36.4 °F 30.2 °F 65% 30.07 in 7.0 mi NW 6.9 mph - N/A   Clear
12:15 PM 42.8 °F 38.6 °F 32.0 °F 66% 30.06 in 7.0 mi NNW 6.9 mph - N/A   Clear
12:35 PM 42.8 °F 41.1 °F 32.0 °F 66% 30.06 in 7.0 mi NNW 3.5 mph - N/A   Clear
12:55 PM 42.8 °F 39.3 °F 32.0 °F 66% 30.05 in 7.0 mi North 5.8 mph - N/A   Clear
1:15 PM 42.8 °F - 32.0 °F 66% 30.05 in 7.0 mi Calm Calm - N/A   Clear
1:35 PM 42.8 °F - 32.0 °F 66% 30.04 in 6.0 mi Calm Calm - N/A   Haze
1:55 PM 42.8 °F - 32.0 °F 66% 30.04 in 7.0 mi Calm Calm - N/A   Clear
2:15 PM 44.6 °F 42.2 °F 32.0 °F 61% 30.02 in 7.0 mi ENE 4.6 mph - N/A   Clear
2:35 PM 44.6 °F - 32.0 °F 61% 30.02 in 7.0 mi Calm Calm - N/A   Clear
2:55 PM 44.6 °F - 32.0 °F 61% 30.03 in 7.0 mi Calm Calm - N/A   Clear
3:15 PM 44.6 °F - 32.0 °F 61% 30.02 in 7.0 mi Calm Calm - N/A   Clear
3:35 PM 44.6 °F - 32.0 °F 61% 30.02 in 7.0 mi Calm Calm - N/A   Clear
3:55 PM 42.8 °F - 32.0 °F 66% 30.02 in 7.0 mi Calm Calm - N/A   Clear
4:15 PM 42.8 °F - 32.0 °F 66% 30.02 in 6.0 mi Calm Calm - N/A   Haze
4:35 PM 42.8 °F 40.1 °F 32.0 °F 66% 30.01 in 6.0 mi East 4.6 mph - N/A   Haze
4:55 PM 42.8 °F 41.1 °F 32.0 °F 66% 30.01 in 6.0 mi ESE 3.5 mph - N/A   Haze
5:15 PM 41.0 °F 37.1 °F 32.0 °F 70% 30.01 in 6.0 mi SSE 5.8 mph - N/A   Haze
5:35 PM 41.0 °F 37.1 °F 32.0 °F 70% 30.02 in 7.0 mi SSW 5.8 mph - N/A   Unknown
5:55 PM 37.4 °F 32.8 °F 32.0 °F 81% 30.01 in 6.0 mi SSW 5.8 mph - N/A   Haze
6:15 PM 37.4 °F - 30.2 °F 75% 30.01 in 7.0 mi Calm Calm - N/A   Unknown
6:35 PM 35.6 °F 31.7 °F 30.2 °F 81% 30.01 in 6.0 mi SSE 4.6 mph - N/A   Haze
6:55 PM 37.4 °F 34.9 °F 32.0 °F 81% 30.01 in 6.0 mi ESE 3.5 mph - N/A   Haze
7:15 PM 39.2 °F 35.9 °F 32.0 °F 75% 30.00 in 6.0 mi SE 4.6 mph - N/A   Haze
7:35 PM 37.4 °F 32.8 °F 32.0 °F 81% 30.00 in 6.0 mi SE 5.8 mph - N/A   Haze
7:55 PM 37.4 °F 32.1 °F 32.0 °F 81% 30.00 in 6.0 mi ESE 6.9 mph - N/A   Haze
8:15 PM 37.4 °F 32.1 °F 32.0 °F 81% 30.00 in 6.0 mi SE 6.9 mph - N/A   Haze
8:35 PM 35.6 °F 29.9 °F 30.2 °F 81% 29.99 in 6.0 mi SE 6.9 mph - N/A   Clear
8:55 PM 35.6 °F 29.2 °F 32.0 °F 87% 29.99 in 6.0 mi SE 8.1 mph - N/A   Haze
9:15 PM 35.6 °F 29.2 °F 32.0 °F 87% 29.99 in 6.0 mi SE 8.1 mph - N/A   Mist
9:35 PM 35.6 °F 29.2 °F 32.0 °F 87% 29.97 in 6.0 mi ESE 8.1 mph - N/A   Haze
9:55 PM 35.6 °F 29.9 °F 32.0 °F 87% 29.97 in 6.0 mi SE 6.9 mph - N/A   Haze
10:15 PM 37.4 °F 30.8 °F 32.0 °F 81% 29.98 in 6.0 mi SE 9.2 mph - N/A   Haze
10:35 PM 35.6 °F 30.7 °F 32.0 °F 87% 29.99 in 6.0 mi SSE 5.8 mph - N/A   Mist
10:55 PM 35.6 °F 29.9 °F 32.0 °F 87% 29.98 in 5.0 mi SE 6.9 mph - N/A   Mist
11:15 PM 37.4 °F 32.1 °F 32.0 °F 81% 29.98 in 6.0 mi ESE 6.9 mph - N/A   Haze
11:35 PM 37.4 °F 31.4 °F 32.0 °F 81% 29.97 in 6.0 mi SE 8.1 mph - N/A   Haze
11:55 PM 35.6 °F 29.9 °F 32.0 °F 87% 29.96 in 6.0 mi ESE 6.9 mph - N/A   Haze